1530018000.97,17754,16.31,74006.5,5.59,4.11,4.07,0,*73
1530018002.15,17755,16.31,74008.0,5.59,4.07,4.07,0,*75
1530018003.32,17756,16.31,74006.5,5.59,4.19,4.19,0,*76
1530018004.49,17757,16.31,74006.8,5.59,4.23,4.23,0,*77
1530018005.67,17758,16.31,74008.3,5.59,4.41,4.41,0,*78
1530018006.9,17759,16.31,74010.8,5.59,4.31,4.31,0,*79
1530018008.1,17760,16.31,74008.5,5.61,4.33,4.27,0,*7D
1530018009.27,17761,16.31,74006.5,5.63,4.27,4.27,0,*7B
1530018010.44,17762,16.31,74006.5,5.63,4.15,4.07,0,*7B
1530018011.64,17763,16.31,74008.0,5.61,4.07,4.07,0,*7B
1530018012.89,17764,16.31,74010.5,5.61,4.01,3.97,0,*74
1530018014.13,17765,16.31,74008.0,5.61,4.01,3.97,0,*75
1530018015.32,17766,16.31,74004.5,5.61,4.15,4.15,0,*7E
1530018016.52,17767,16.31,74004.3,5.61,4.33,4.33,0,*7F
1530018017.76,17768,16.31,74008.5,5.59,4.05,4.05,0,*7B
1530018018.96,17769,16.31,74004.3,5.59,3.71,3.63,0,*79
1530018020.21,17770,16.31,74008.0,5.57,3.41,3.37,0,*7D
1530018021.45,17771,16.31,74008.5,5.57,3.53,3.53,0,*7D
1530018022.67,17772,16.31,74010.5,5.57,3.63,3.71,0,*7D
1530018023.92,17773,16.31,74006.0,5.57,3.97,3.97,0,*7F
1530018025.09,17774,16.31,74004.8,5.53,4.07,4.07,0,*7C
1530018026.34,17775,16.31,74008.0,5.51,4.01,3.97,0,*77
1530018027.56,17776,16.31,74008.3,5.51,3.85,3.79,0,*7F
1530018028.82,17777,16.31,74006.8,5.51,3.79,3.75,0,*71
1530018030.02,17778,16.31,74008.3,5.51,3.89,3.89,0,*72
1530018031.22,17779,16.31,74008.5,5.51,3.89,3.85,0,*7F
1530018032.42,17780,16.31,74010.0,5.51,3.85,3.85,0,*75
1530018033.68,17781,16.31,74008.0,5.51,3.79,3.75,0,*78
1530018034.93,17782,16.31,74010.0,5.51,3.67,3.67,0,*77
1530018036.18,17783,16.31,74010.3,5.51,3.79,3.79,0,*76
1530018037.44,17784,16.31,74010.5,5.51,3.75,3.67,0,*72
1530018038.69,17785,16.31,74004.8,5.51,3.79,3.75,0,*7C
1530018039.95,17786,16.31,74008.5,5.51,3.79,3.75,0,*7F
1530018041.12,17787,16.31,74008.0,5.45,3.81,3.85,0,*73
1530018042.29,17788,16.31,74006.8,5.49,4.07,4.07,0,*74
1530018043.47,17789,16.31,74010.8,5.45,4.19,4.23,0,*70
1530018044.64,17790,16.31,74008.0,5.49,4.41,4.45,0,*79
1530018045.89,17791,16.31,74006.8,5.51,4.59,4.67,0,*78
1530018047.09,17792,16.31,74006.8,5.57,4.85,4.85,0,*70
1530018048.26,17793,16.31,74006.5,5.53,4.89,4.89,0,*75
1530018049.46,17794,16.31,74004.5,5.53,4.97,4.89,0,*7D
1530018050.69,17795,16.31,74006.5,5.53,5.01,5.01,0,*73
1530018051.89,17796,16.31,74010.0,5.59,5.11,5.05,0,*7F
1530018053.09,17797,16.31,74010.8,5.57,4.89,4.89,0,*75
1530018054.29,17798,16.31,74006.5,5.59,4.79,4.89,0,*7B
1530018055.49,17799,16.31,74010.5,5.59,4.57,4.67,0,*76
1530018056.66,17800,16.31,74008.0,5.59,4.45,4.53,0,*7D
1530018057.84,17801,16.31,74006.5,5.59,4.53,4.57,0,*7F
1530018059.1,17802,16.31,74006.0,5.57,4.63,4.75,0,*71
1530018060.33,17803,16.31,74010.8,5.59,4.67,4.67,0,*79
1530018061.53,17804,16.31,74006.5,5.59,4.57,4.63,0,*79
1530018062.71,17805,16.31,74004.8,5.59,4.45,4.53,0,*78
1530018063.88,17806,16.31,74008.8,5.59,4.45,4.53,0,*7B
1530018065.08,17807,16.31,74008.0,5.57,4.45,4.45,0,*73
1530018066.28,17808,16.31,74008.8,5.59,4.31,4.23,0,*71
1530018067.51,17809,16.31,74004.3,5.57,4.41,4.31,0,*7A
1530018068.71,17810,16.31,74010.5,5.57,4.45,4.45,0,*75
1530018069.91,17811,16.31,74006.5,5.59,4.33,4.31,0,*78
1530018071.14,17812,16.31,74008.5,5.59,4.31,4.31,0,*79
1530018072.35,17813,16.31,74008.8,5.57,4.11,4.07,0,*71
1530018073.6,17814,16.31,74012.0,5.57,3.75,3.71,0,*75
1530018074.84,17815,16.31,74006.5,5.57,3.49,3.53,0,*7B
1530018076.1,17816,16.31,74008.0,5.51,3.45,3.45,0,*75
1530018077.35,17817,16.31,74008.5,5.51,3.41,3.33,0,*71
1530018078.6,17818,16.31,74008.0,5.51,3.53,3.53,0,*7B
1530018079.81,17819,16.31,74006.8,5.45,3.53,3.53,0,*7F
1530018081.04,17820,16.31,74008.8,5.45,3.75,3.71,0,*71
1530018082.24,17821,16.31,74006.3,5.45,3.59,3.53,0,*7E
1530018083.4,17822,16.31,74010.5,5.49,3.59,3.59,0,*7B
1530018084.57,17823,16.31,74008.8,5.45,3.63,3.59,0,*7F
1530018085.77,17824,16.31,74004.0,5.45,3.71,3.59,0,*7B
1530018086.97,17825,16.31,74010.3,5.43,3.55,3.55,0,*76
1530018088.22,17826,16.31,74008.5,5.43,3.45,3.45,0,*75
1530018089.47,17827,16.31,74010.3,5.43,3.45,3.37,0,*71
1530018090.64,17828,16.31,74006.3,5.41,3.55,3.55,0,*79
1530018091.86,17829,16.31,74010.3,5.41,3.79,3.79,0,*78
1530018093.12,17830,16.31,74006.3,5.43,4.05,4.05,0,*72
1530018094.34,17831,16.31,74004.5,5.41,4.01,4.01,0,*71
1530018095.57,17832,16.31,74004.3,5.41,4.05,4.05,0,*72
1530018096.79,17833,16.31,74008.3,5.41,4.05,4.01,0,*77
1530018097.96,17834,16.31,74004.8,5.41,3.85,3.85,0,*74
1530018099.17,17835,16.31,74008.0,5.41,3.67,3.63,0,*71
1530018100.34,17836,16.31,74008.3,5.41,3.63,3.63,0,*76
1530018101.54,17837,16.31,74008.0,5.37,3.71,3.59,0,*7C
1530018102.71,17838,16.31,74010.0,5.37,3.59,3.59,0,*79
1530018103.93,17839,16.31,74006.3,5.37,3.49,3.53,0,*73
1530018105.16,17840,16.31,74006.5,5.37,3.53,3.49,0,*7D
1530018106.39,17841,16.31,74006.8,5.37,3.41,3.49,0,*7F
1530018107.61,17842,16.31,74008.5,5.37,3.49,3.49,0,*74
1530018108.81,17843,16.31,74008.8,5.37,3.63,3.53,0,*76
1530018110.07,17844,16.31,74010.0,5.35,3.71,3.71,0,*70
1530018111.3,17845,16.31,74010.0,5.35,3.79,3.81,0,*76
1530018112.5,17846,16.31,74004.5,5.35,3.81,3.85,0,*76
1530018113.71,17847,16.31,74006.5,5.35,3.93,3.93,0,*73
1530018114.92,17848,16.31,74006.8,5.35,3.93,3.93,0,*7C
1530018116.13,17849,16.31,74004.0,5.35,3.93,3.93,0,*7D
1530018117.33,17850,16.31,74010.5,5.35,3.85,3.85,0,*75
1530018118.56,17851,16.31,74008.5,5.35,3.97,3.93,0,*70
1530018119.81,17852,16.31,74006.8,5.35,3.97,3.97,0,*77
1530018121.06,17853,16.31,74006.0,5.35,3.97,3.97,0,*76
1530018122.29,17854,16.31,74006.3,5.35,3.85,3.97,0,*72
1530018123.52,17855,16.31,74004.5,5.35,3.79,3.81,0,*77
1530018124.7,17856,16.31,74008.5,5.33,3.93,3.93,0,*75
1530018125.91,17857,16.31,74006.8,5.35,3.93,3.93,0,*72
1530018127.12,17858,16.31,74006.3,5.35,3.93,3.93,0,*7D
1530018128.33,17859,16.31,74006.8,5.35,3.85,3.93,0,*7B
1530018129.5,17860,16.31,74006.3,5.33,3.85,3.85,0,*70
1530018130.73,17861,16.31,74006.5,5.33,3.67,3.67,0,*71
1530018131.93,17862,16.31,74008.3,5.33,3.59,3.67,0,*7F
1530018133.15,17863,16.31,74008.5,5.33,3.71,3.71,0,*73
1530018134.39,17864,16.31,74006.0,5.33,3.67,3.71,0,*73
1530018135.58,17865,16.31,74008.5,5.33,3.59,3.71,0,*7F
1530018136.8,17866,16.31,74008.0,5.31,3.53,3.63,0,*77
1530018138.0,17867,16.31,74008.3,5.31,3.63,3.55,0,*70
1530018139.23,17868,16.31,74008.8,5.31,3.79,3.81,0,*7D
1530018140.44,17869,16.31,74006.5,5.31,3.89,3.89,0,*7B
1530018141.67,17870,16.31,74006.0,5.31,3.93,4.01,0,*7F
1530018142.85,17871,16.31,74008.0,5.33,3.89,3.93,0,*7B
1530018144.08,17872,16.31,74006.5,5.31,3.75,3.81,0,*7A
1530018145.31,17873,16.31,74008.0,5.29,3.75,3.79,0,*75
1530018146.54,17874,16.31,74008.8,5.29,3.75,3.75,0,*7E
1530018147.77,17875,16.31,74006.5,5.29,3.67,3.67,0,*7F
1530018149.0,17876,16.31,74004.8,5.29,3.67,3.75,0,*7F
1530018150.24,17877,16.31,74010.3,5.29,3.67,3.75,0,*7E
1530018151.4,17878,16.31,74004.0,5.29,3.55,3.63,0,*77
1530018152.62,17879,16.31,74004.8,5.29,3.53,3.53,0,*73
1530018153.81,17880,16.31,74006.5,5.29,3.55,3.53,0,*73
1530018155.01,17881,16.31,74004.8,5.25,3.59,3.53,0,*72
1530018156.24,17882,16.31,74006.8,5.29,3.67,3.67,0,*77
1530018157.44,17883,16.31,74006.8,5.25,3.85,3.79,0,*79
1530018158.64,17884,16.31,74006.0,5.25,3.85,3.97,0,*7E
1530018159.84,17885,16.31,74006.8,5.25,4.07,3.97,0,*72
1530018161.02,17886,16.31,74004.5,5.25,4.07,4.07,0,*7F
1530018162.23,17887,16.31,74004.5,5.25,4.01,4.07,0,*78
1530018163.4,17888,16.31,74006.0,5.25,4.19,4.19,0,*71
1530018164.6,17889,16.31,74004.8,5.31,4.23,4.27,0,*71
1530018165.81,17890,16.31,74010.8,5.31,4.37,4.33,0,*79
1530018166.98,17891,16.31,74004.3,5.29,4.45,4.37,0,*70
1530018168.19,17892,16.31,74008.3,5.31,4.57,4.57,0,*7F
1530018169.45,17893,16.31,74008.8,5.31,4.63,4.71,0,*7D
1530018170.68,17894,16.31,74010.5,5.33,4.59,4.63,0,*72
1530018171.91,17895,16.31,74008.8,5.33,4.31,4.31,0,*7A
1530018173.11,17896,16.31,74008.5,5.33,4.27,4.31,0,*7E
1530018174.31,17897,16.31,74010.0,5.35,4.19,4.27,0,*73
1530018175.48,17898,16.31,74008.5,5.33,4.19,4.27,0,*7A
1530018176.65,17899,16.31,74010.5,5.33,4.19,4.27,0,*7B
1530018177.89,17900,16.31,74010.8,5.35,4.27,4.31,0,*76
1530018179.07,17901,16.31,74010.0,5.33,4.37,4.37,0,*76
1530018180.31,17902,16.31,74006.8,5.35,4.37,4.31,0,*75
1530018181.54,17903,16.31,74010.3,5.35,4.27,4.31,0,*75
1530018182.78,17904,16.31,74006.0,5.35,4.05,4.07,0,*77
1530018183.98,17905,16.31,74008.3,5.33,3.93,3.97,0,*76
1530018185.18,17906,16.31,74008.3,5.33,4.05,4.07,0,*73
1530018186.38,17907,16.31,74004.3,5.35,4.27,4.27,0,*76
1530018187.59,17908,16.31,74008.5,5.35,4.37,4.49,0,*70
1530018188.8,17909,16.31,74006.5,5.35,4.53,4.53,0,*78
1530018190.06,17910,16.31,74008.5,5.35,4.67,4.75,0,*73
1530018191.31,17911,16.31,74010.0,5.35,4.79,4.79,0,*71
1530018192.54,17912,16.31,74008.0,5.35,4.79,4.85,0,*71
1530018193.75,17913,16.31,74010.8,5.41,4.85,4.93,0,*77
1530018194.98,17914,16.31,74008.5,5.37,4.79,4.67,0,*79
1530018196.21,17915,16.31,74006.0,5.41,4.71,4.71,0,*76
1530018197.44,17916,16.31,74004.3,5.41,4.79,4.71,0,*7D
1530018198.67,17917,16.31,74006.8,5.37,4.79,4.79,0,*75
1530018199.88,17918,16.31,74008.3,5.41,4.81,4.75,0,*70
1530018201.11,17919,16.31,74006.8,5.41,4.71,4.71,0,*7A
1530018202.35,17920,16.31,74010.3,5.41,4.75,4.75,0,*70
1530018203.52,17921,16.31,74006.8,5.41,4.81,4.85,0,*75
1530018204.69,17922,16.31,74004.8,5.41,4.81,4.81,0,*72
1530018205.89,17923,16.31,74010.8,5.41,4.71,4.81,0,*7C
1530018207.12,17924,16.31,74004.0,5.41,4.75,4.75,0,*74
1530018208.35,17925,16.31,74006.0,5.41,4.75,4.75,0,*75
1530018209.55,17926,16.31,74006.8,5.43,4.85,4.89,0,*78
1530018210.78,17927,16.31,74006.5,5.43,4.89,4.97,0,*7A
1530018212.04,17928,16.31,74004.8,5.43,4.97,4.97,0,*7A
1530018213.27,17929,16.31,74006.5,5.49,5.01,4.93,0,*7B
1530018214.5,17930,16.31,74006.0,5.45,5.01,5.05,0,*71
1530018215.67,17931,16.31,74004.5,5.49,5.11,5.15,0,*7C
1530018216.84,17932,16.31,74006.3,5.49,5.15,5.15,0,*7B
1530018218.02,17933,16.31,74004.8,5.49,5.11,5.11,0,*7A
1530018219.26,17934,16.31,74008.3,5.51,5.05,5.07,0,*76
1530018220.48,17935,16.31,74006.8,5.49,4.75,4.79,0,*70
1530018221.65,17936,16.31,74006.0,5.49,4.45,4.41,0,*7B
1530018222.83,17937,16.31,74006.0,5.45,4.11,4.23,0,*73
1530018224.0,17938,16.31,74006.3,5.45,4.11,4.11,0,*7D
1530018225.17,17939,16.31,74010.0,5.45,4.11,4.19,0,*74
1530018226.39,17940,16.31,74004.3,5.45,4.01,4.01,0,*72
1530018227.57,17941,16.31,74004.8,5.45,4.07,4.07,0,*73
1530018228.8,17942,16.31,74004.3,5.43,4.07,4.05,0,*74
1530018230.05,17943,16.31,74004.0,5.43,3.97,4.05,0,*7B
1530018231.26,17944,16.31,74006.3,5.43,3.89,3.93,0,*7B
1530018232.44,17945,16.31,74004.8,5.41,3.89,3.93,0,*78
1530018233.61,17946,16.31,74004.3,5.41,4.11,4.11,0,*70
1530018234.85,17947,16.31,74008.5,5.41,4.05,4.05,0,*71
1530018236.05,17948,16.31,74006.5,5.41,3.93,4.05,0,*76
1530018237.22,17949,16.31,74006.3,5.41,3.85,3.85,0,*7F
1530018238.45,17950,16.31,74006.3,5.37,3.75,3.75,0,*76
1530018239.65,17951,16.31,74004.0,5.37,3.85,3.97,0,*74
1530018240.88,17952,16.31,74004.3,5.37,3.97,3.97,0,*74
1530018242.11,17953,16.31,74004.8,5.37,3.75,3.75,0,*75
1530018243.29,17954,16.31,74006.8,5.37,3.85,3.89,0,*7E
1530018244.51,17955,16.31,74004.8,5.37,4.01,3.97,0,*7B
1530018245.71,17956,16.31,74004.0,5.37,4.31,4.19,0,*7A
1530018246.92,17957,16.31,74004.8,5.35,4.41,4.41,0,*73
1530018248.15,17958,16.31,74006.3,5.37,4.67,4.67,0,*7E
1530018249.33,17959,16.31,74004.8,5.41,4.85,4.85,0,*7E
1530018250.52,17960,16.31,74008.5,5.41,4.75,4.81,0,*7F
1530018251.75,17961,16.31,74006.5,5.41,4.59,4.59,0,*75
1530018252.93,17962,16.31,74006.0,5.37,4.45,4.45,0,*77
1530018254.1,17963,16.31,74004.0,5.41,4.49,4.45,0,*7B
1530018255.27,17964,16.31,74004.8,5.41,4.49,4.57,0,*7F
1530018256.46,17965,16.31,74006.5,5.41,4.57,4.59,0,*7F
1530018257.63,17966,16.31,74002.8,5.41,4.57,4.49,0,*7D
1530018258.81,17967,16.31,74004.5,5.41,4.57,4.57,0,*73
1530018259.99,17968,16.31,74004.8,5.37,4.33,4.41,0,*78
1530018261.17,17969,16.31,74006.0,5.41,4.15,4.15,0,*7D
1530018262.37,17970,16.31,74006.0,5.41,4.05,4.11,0,*70
1530018263.55,17971,16.31,74006.3,5.41,4.11,4.15,0,*70
1530018264.75,17972,16.31,74004.8,5.41,4.33,4.31,0,*75
1530018265.93,17973,16.31,74008.3,5.41,4.33,4.33,0,*76
1530018267.1,17974,16.31,74004.0,5.41,4.27,4.27,0,*71
1530018268.27,17975,16.31,74004.8,5.41,4.15,4.19,0,*7C
1530018269.45,17976,16.31,74010.0,5.37,4.19,4.11,0,*7A
1530018270.62,17977,16.31,74004.3,5.37,4.23,4.19,0,*7A
1530018271.79,17978,16.31,74006.5,5.37,4.19,4.11,0,*74
1530018273.01,17979,16.31,74010.5,5.37,3.97,4.01,0,*75
1530018274.19,17980,16.31,74004.8,5.37,3.81,3.89,0,*73
1530018275.42,17981,16.31,74008.0,5.33,3.67,3.71,0,*79
1530018276.62,17982,16.31,74004.5,5.33,3.59,3.67,0,*70
1530018277.85,17983,16.31,74004.8,5.33,3.45,3.49,0,*70
1530018279.1,17984,16.31,74004.0,5.31,3.33,3.41,0,*7C
1530018280.33,17985,16.31,74008.8,5.29,3.45,3.45,0,*71
1530018281.59,17986,16.31,74008.0,5.31,3.45,3.41,0,*7F
1530018282.79,17987,16.31,74006.8,5.29,3.29,3.33,0,*78
1530018283.97,17988,16.31,74004.5,5.29,3.29,3.29,0,*7C
1530018285.21,17989,16.31,74006.8,5.25,3.15,3.15,0,*71
1530018286.44,17990,16.31,74010.0,5.25,3.03,3.03,0,*79
1530018287.61,17991,16.31,74004.3,5.23,2.95,2.95,0,*7E
1530018288.83,17992,16.31,74008.8,5.19,2.85,2.85,0,*74
1530018290.01,17993,16.25,74002.8,5.19,2.95,2.95,0,*75
1530018291.24,17994,16.31,74008.5,5.19,3.11,3.11,0,*72
1530018292.47,17995,16.31,74010.3,5.19,3.11,3.07,0,*74
1530018293.73,17996,16.31,74006.0,5.17,2.81,2.81,0,*7E
1530018294.95,17997,16.31,74004.3,5.15,2.77,2.69,0,*72
1530018296.18,17998,16.31,74006.5,5.15,2.55,2.59,0,*7E
1530018297.41,17999,16.31,74006.3,5.15,2.43,2.47,0,*77
1530018298.63,18000,16.31,74006.0,5.13,2.65,2.59,0,*7C
1530018299.85,18001,16.31,74008.8,5.11,2.85,2.85,0,*70
1530018301.11,18002,16.31,74006.0,5.09,2.89,2.81,0,*72
1530018302.31,18003,16.31,74004.3,5.07,2.95,2.89,0,*78
1530018303.51,18004,16.31,74004.8,5.09,2.99,2.99,0,*7C
1530018304.74,18005,16.31,74006.8,5.07,3.11,3.07,0,*74
1530018305.97,18006,16.31,74002.8,5.07,3.19,3.07,0,*7F
1530018307.14,18007,16.31,74006.3,5.07,2.95,2.95,0,*71
1530018308.37,18008,16.25,74002.0,5.07,2.81,2.73,0,*73
1530018309.58,18009,16.31,74004.5,5.03,2.69,2.65,0,*77
1530018310.83,18010,16.31,74002.8,5.01,2.77,2.77,0,*71
1530018312.05,18011,16.31,74004.3,5.03,2.77,2.69,0,*7D
1530018313.28,18012,16.31,74004.8,4.99,2.77,2.77,0,*73
1530018314.49,18013,16.31,74004.3,4.99,2.91,2.89,0,*7B
1530018315.7,18014,16.31,74006.8,4.99,3.03,2.91,0,*7F
1530018316.9,18015,16.31,74004.5,4.97,2.99,2.99,0,*7A
1530018318.15,18016,16.31,74004.3,4.97,3.23,3.23,0,*79
1530018319.38,18017,16.31,74006.8,4.99,3.37,3.37,0,*76
1530018320.61,18018,16.31,74006.3,4.99,3.45,3.53,0,*7E
1530018321.86,18019,16.31,74004.0,4.97,3.45,3.45,0,*76
1530018323.09,18020,16.31,74004.0,4.99,3.53,3.49,0,*79
1530018324.27,18021,16.31,74004.3,4.99,3.59,3.59,0,*73
1530018325.45,18022,16.31,74004.5,4.99,3.59,3.59,0,*70
1530018326.62,18023,16.31,74004.3,4.99,3.59,3.59,0,*71
1530018327.82,18024,16.31,74006.8,4.97,3.59,3.59,0,*78
1530018329.02,18025,16.31,74006.5,4.99,3.59,3.53,0,*7D
1530018330.26,18026,16.31,74006.0,4.99,3.15,3.23,0,*71
1530018331.46,18027,16.31,74008.3,4.97,2.99,2.99,0,*7B
1530018332.72,18028,16.31,74006.5,4.97,3.07,3.07,0,*74
1530018333.97,18029,16.31,74006.8,4.97,3.07,3.11,0,*72
1530018335.2,18030,16.25,74002.3,4.93,3.25,3.19,0,*76
1530018336.43,18031,16.31,74006.8,4.99,3.49,3.45,0,*7E
1530018337.64,18032,16.31,74004.3,4.95,3.67,3.59,0,*70
1530018338.88,18033,16.31,74004.3,4.95,3.67,3.71,0,*7B
1530018340.06,18034,16.31,74006.8,4.95,3.59,3.59,0,*7B
1530018341.27,18035,16.31,74006.8,4.95,3.59,3.49,0,*7B
1530018342.44,18036,16.31,74006.0,4.95,3.59,3.55,0,*75
1530018343.68,18037,16.31,74004.5,4.95,3.45,3.41,0,*7C
1530018344.89,18038,16.31,74004.8,4.95,3.11,2.99,0,*76
1530018346.15,18039,16.25,74006.5,4.93,2.81,2.81,0,*70
1530018347.37,18040,16.31,74010.0,4.95,2.59,2.61,0,*73
1530018348.62,18041,16.31,74006.3,4.93,2.85,2.85,0,*7F
1530018349.85,18042,16.31,74006.3,4.91,3.29,3.37,0,*71
1530018351.04,18043,16.25,74006.5,4.91,3.63,3.63,0,*7F
1530018352.27,18044,16.31,74004.8,4.91,3.79,3.85,0,*7B
1530018353.53,18045,16.25,74006.5,4.93,3.79,3.79,0,*7B
1530018354.79,18046,16.31,74004.8,4.93,3.67,3.67,0,*78
1530018355.99,18047,16.31,74006.8,4.93,3.55,3.55,0,*79
1530018357.24,18048,16.31,74010.8,4.93,3.41,3.53,0,*75
1530018358.48,18049,16.31,74010.0,4.93,3.37,3.29,0,*78
1530018359.74,18050,16.31,74006.5,4.91,3.41,3.41,0,*7D
1530018360.98,18051,16.31,74008.0,4.91,3.53,3.53,0,*7C
1530018362.23,18052,16.25,74004.0,4.91,3.41,3.45,0,*7B
1530018363.41,18053,16.31,74010.3,4.89,3.25,3.25,0,*77
1530018364.67,18054,16.31,74006.5,4.91,3.41,3.41,0,*79
1530018365.89,18055,16.31,74008.3,4.89,3.45,3.53,0,*76
1530018367.11,18056,16.31,74008.0,4.89,3.49,3.41,0,*7A
1530018368.33,18057,16.31,74008.3,4.89,3.37,3.37,0,*73
1530018369.56,18058,16.31,74008.8,4.89,3.41,3.49,0,*74
1530018370.78,18059,16.31,74006.5,4.89,3.53,3.53,0,*7D
1530018371.98,18060,16.31,74010.3,4.89,3.71,3.63,0,*74
1530018373.2,18061,16.25,74006.8,4.91,3.85,3.97,0,*7C
1530018374.4,18062,16.31,74004.8,4.91,4.07,4.07,0,*7C
1530018375.63,18063,16.31,74008.0,4.91,3.89,3.97,0,*72
1530018376.83,18064,16.31,74010.3,4.91,3.89,3.85,0,*76
1530018378.04,18065,16.31,74008.0,4.91,3.89,3.89,0,*7B
1530018379.29,18066,16.31,74006.8,4.91,3.79,3.79,0,*78
1530018380.54,18067,16.31,74006.8,4.91,3.67,3.67,0,*79
1530018381.8,18068,16.31,74008.8,4.91,3.75,3.75,0,*76
1530018382.97,18069,16.25,74004.8,4.89,3.85,3.93,0,*79
1530018384.22,18070,16.31,74010.3,4.91,4.01,4.01,0,*7F
1530018385.47,18071,16.25,74004.3,4.91,3.79,3.79,0,*7E
1530018386.66,18072,16.31,74010.8,4.89,3.53,3.59,0,*7E
1530018387.88,18073,16.31,74004.8,4.91,3.55,3.53,0,*7A
1530018389.07,18074,16.31,74006.0,4.91,3.63,3.63,0,*7B
1530018390.33,18075,16.25,74004.8,4.91,3.75,3.75,0,*7A
1530018391.5,18076,16.31,74010.3,4.89,3.63,3.63,0,*70
1530018392.75,18077,16.31,74010.3,4.91,3.67,3.53,0,*7F
1530018393.94,18078,16.31,74006.8,4.89,3.59,3.53,0,*74
1530018395.17,18079,16.31,74008.0,4.89,3.41,3.37,0,*7E
1530018396.36,18080,16.31,74004.5,4.89,3.33,3.25,0,*7E
1530018397.59,18081,16.31,74008.0,4.89,3.03,3.03,0,*78
1530018398.77,18082,16.31,74008.0,4.89,2.91,2.99,0,*73
1530018400.0,18083,16.31,74010.3,4.87,2.59,2.61,0,*7F
1530018401.24,18084,16.31,74008.8,4.85,2.17,2.17,0,*71
1530018402.49,18085,16.31,74008.3,4.79,2.01,2.01,0,*73
1530018403.74,18086,16.31,74010.5,4.79,2.13,2.01,0,*73
1530018404.97,18087,16.31,74012.0,4.75,2.39,2.35,0,*71
1530018406.22,18088,16.25,74006.8,4.75,2.55,2.55,0,*72
1530018407.43,18089,16.25,74008.3,4.75,2.61,2.61,0,*73
1530018408.64,18090,16.31,74008.0,4.75,2.65,2.61,0,*7F
1530018409.87,18091,16.31,74008.8,4.75,2.73,2.65,0,*7D
1530018411.12,18092,16.31,74008.8,4.75,2.85,2.85,0,*79
1530018412.3,18093,16.25,74004.0,4.73,2.61,2.61,0,*7E
1530018413.48,18094,16.31,74010.3,4.73,2.61,2.61,0,*79
1530018414.7,18095,16.25,74006.5,4.73,2.85,2.85,0,*78
1530018415.93,18096,16.25,74006.8,4.73,3.07,3.07,0,*7B
1530018417.13,18097,16.25,74006.3,4.73,2.99,3.07,0,*7C
1530018418.31,18098,16.31,74010.3,4.73,2.95,2.95,0,*75
1530018419.53,18099,16.31,74008.3,4.73,2.73,2.77,0,*70
1530018420.76,18100,16.31,74010.0,4.73,2.77,2.73,0,*71
1530018421.98,18101,16.31,74010.0,4.73,2.89,2.89,0,*74
1530018423.19,18102,16.25,74006.5,4.73,2.95,2.89,0,*7A
1530018424.42,18103,16.31,74008.0,4.69,3.03,3.03,0,*7D
1530018425.65,18104,16.25,74006.5,4.69,3.03,3.03,0,*7A
1530018426.87,18105,16.31,74008.3,4.69,2.69,2.69,0,*7B
1530018428.1,18106,16.31,74010.5,4.69,2.59,2.59,0,*78
1530018429.31,18107,16.31,74010.3,4.67,2.65,2.65,0,*77
1530018430.49,18108,16.25,74006.5,4.69,2.91,2.91,0,*76
1530018431.72,18109,16.25,74004.5,4.67,2.89,2.91,0,*70
1530018432.98,18110,16.25,74006.5,4.67,3.15,3.15,0,*71
1530018434.2,18111,16.25,74006.0,4.67,3.25,3.19,0,*7F
1530018435.46,18112,16.31,74010.3,4.67,3.03,3.03,0,*73
1530018436.72,18113,16.25,74008.5,4.67,2.77,2.77,0,*72
1530018437.93,18114,16.25,74006.3,4.67,2.65,2.65,0,*75
1530018439.18,18115,16.25,74006.5,4.63,2.43,2.43,0,*70
1530018440.41,18116,16.25,74006.8,4.65,2.39,2.39,0,*75
1530018441.67,18117,16.25,74004.8,4.63,2.43,2.51,0,*71
1530018442.89,18118,16.25,74006.5,4.57,2.73,2.73,0,*7A
1530018444.08,18119,16.25,74004.5,4.61,2.61,2.61,0,*7E
1530018445.31,18120,16.31,74010.0,4.61,2.73,2.81,0,*79
1530018446.49,18121,16.25,74006.5,4.61,2.95,2.95,0,*75
1530018447.72,18122,16.25,74004.0,4.61,3.11,3.07,0,*71
1530018448.94,18123,16.31,74008.0,4.61,3.19,3.19,0,*77
1530018450.15,18124,16.25,74006.5,4.61,3.23,3.29,0,*7A
1530018451.38,18125,16.25,74006.5,4.61,3.23,3.23,0,*71
1530018452.61,18126,16.25,74006.0,4.61,3.23,3.23,0,*72
1530018453.84,18127,16.25,74004.3,4.61,3.03,3.11,0,*70
1530018455.08,18128,16.31,74008.0,4.61,3.11,3.11,0,*7C
1530018456.3,18129,16.25,74006.3,4.57,3.45,3.33,0,*79
1530018457.48,18130,16.25,74006.5,4.61,3.63,3.63,0,*75
1530018458.7,18131,16.25,74008.3,4.61,3.53,3.53,0,*74
1530018459.94,18132,16.25,74006.8,4.61,3.41,3.45,0,*73
1530018461.16,18133,16.31,74008.0,4.63,3.55,3.67,0,*75
1530018462.41,18134,16.25,74004.3,4.63,3.49,3.49,0,*73
1530018463.62,18135,16.31,74008.0,4.63,3.25,3.25,0,*72
1530018464.88,18136,16.31,74010.3,4.63,3.23,3.15,0,*74
1530018466.14,18137,16.31,74010.3,4.63,3.23,3.15,0,*75
1530018467.39,18138,16.25,74006.0,4.63,3.23,3.23,0,*7F
1530018468.65,18139,16.25,74004.3,4.63,3.11,3.11,0,*7E
1530018469.88,18140,16.25,74006.0,4.61,3.11,3.07,0,*75
1530018471.1,18141,16.25,74008.5,4.61,3.19,3.19,0,*73
1530018472.29,18142,16.25,74010.5,4.61,3.29,3.29,0,*70
1530018473.52,18143,16.31,74010.5,4.61,3.41,3.45,0,*75
1530018474.75,18144,16.31,74010.5,4.63,3.59,3.49,0,*75
1530018475.92,18145,16.25,74008.8,4.65,3.55,3.59,0,*7F
1530018477.18,18146,16.25,74008.3,4.63,3.71,3.67,0,*71
1530018478.43,18147,16.25,74006.3,4.63,3.45,3.49,0,*7B
1530018479.64,18148,16.25,74006.5,4.63,3.25,3.25,0,*78
1530018480.81,18149,16.25,74006.8,4.65,3.25,3.25,0,*7F
1530018482.04,18150,16.25,74006.8,4.65,3.45,3.37,0,*72
1530018483.3,18151,16.25,74006.0,4.63,3.67,3.67,0,*70
1530018484.5,18152,16.25,74006.8,4.63,3.81,3.81,0,*73
1530018485.71,18153,16.25,74006.5,4.63,3.81,3.89,0,*7A
1530018486.92,18154,16.25,74004.5,4.63,3.89,3.89,0,*75
1530018488.13,18155,16.25,74006.8,4.63,3.89,3.89,0,*74
1530018489.33,18156,16.25,74006.0,4.65,3.93,3.97,0,*75
1530018490.58,18157,16.25,74008.3,4.67,4.01,4.01,0,*72
1530018491.81,18158,16.25,74010.0,4.67,4.07,4.01,0,*7B
1530018493.01,18159,16.31,74010.5,4.67,4.11,4.11,0,*7C
1530018494.26,18160,16.31,74010.5,4.67,4.01,4.01,0,*76
1530018495.44,18161,16.25,74010.5,4.69,4.11,4.07,0,*7E
1530018496.62,18162,16.25,74010.3,4.69,4.11,4.11,0,*7A
1530018497.79,18163,16.25,74008.5,4.69,4.11,4.11,0,*7B
1530018499.03,18164,16.31,74008.3,4.69,4.05,4.05,0,*7C
1530018500.25,18165,16.25,74004.8,4.69,4.01,4.01,0,*7D
1530018501.47,18166,16.25,74010.0,4.69,3.97,3.97,0,*7E
1530018502.69,18167,16.25,74008.0,4.69,3.97,3.97,0,*7F
1530018503.88,18168,16.25,74006.8,4.69,3.89,3.89,0,*70
1530018505.08,18169,16.25,74006.8,4.69,3.79,3.85,0,*72
1530018506.26,18170,16.25,74008.0,4.69,3.89,3.89,0,*79
1530018507.48,18171,16.25,74008.3,4.69,3.97,3.97,0,*78
1530018508.71,18172,16.25,74010.8,4.69,4.05,4.01,0,*7F
1530018509.89,18173,16.25,74006.3,4.73,4.07,4.07,0,*71
1530018511.13,18174,16.25,74004.8,4.73,4.05,4.05,0,*76
1530018512.35,18175,16.25,74010.3,4.73,4.01,4.01,0,*77
1530018513.53,18176,16.25,74008.5,4.73,3.93,3.93,0,*74
1530018514.71,18177,16.25,74010.0,4.73,3.93,3.93,0,*75
1530018515.92,18178,16.25,74008.0,4.73,3.93,4.01,0,*76
1530018517.14,18179,16.31,74010.8,4.73,4.01,4.01,0,*7B
1530018518.36,18180,16.25,74008.3,4.73,4.01,4.01,0,*7D
1530018519.58,18181,16.25,74008.0,4.73,4.01,4.01,0,*7C
1530018520.8,18182,16.25,74008.5,4.73,4.01,4.01,0,*7F
1530018522.0,18183,16.25,74006.5,4.73,3.93,4.01,0,*72
1530018523.18,18184,16.25,74006.0,4.73,3.81,3.89,0,*71
1530018524.41,18185,16.31,74010.8,4.73,3.71,3.79,0,*70
1530018525.64,18186,16.25,74004.5,4.73,3.71,3.71,0,*7B
1530018526.87,18187,16.25,74008.5,4.73,3.79,3.71,0,*72
1530018528.1,18188,16.25,74010.0,4.73,3.79,3.71,0,*7D
1530018529.33,18189,16.25,74008.0,4.73,3.79,3.79,0,*74
1530018530.56,18190,16.25,74008.0,4.73,3.71,3.71,0,*7C